Regional Weather Roundup
Issued by NWS Green Bay, WI

Home | Current Version | Previous Version | Text Only | Print | Product List | Glossary On
Versions: 1 2 3 4 5 6 7 8 9 10 11 12 13 14 15 16 17 18 19 20 21 22 23 24 25 26 27 28 29 30 31 32 33 34 35 36 37 38 39 40 41 42 43 44 45 46 47 48 49 50
000
ASUS43 KGRB 261410
RWRGRB

NORTH-CENTRAL AND NORTHEAST WISCONSIN REGIONAL WEATHER ROUNDUP
NATIONAL WEATHER SERVICE GREEN BAY WI
900 AM CDT SUN APR 26 2015

WIZ005-009-010>012-018-019-261500-
NORTH CENTRAL WISCONSIN

CITY           SKY/WX    TMP DP  RH WIND       PRES   REMARKS
IRONWOOD       SUNNY     37  28  70 NW3       30.10S
MANITOWISH WTR SUNNY     42  20  41 N3        30.10R
ARBOR VITAE    SUNNY     44  20  39 N8        30.09R
EAGLE RIVER    SUNNY     44  17  34 NE7       30.07S
LAND O LAKES   SUNNY     44  18  36 N5        30.09S
RHINELANDER    SUNNY     43  20  39 N6        30.08R
PHILLIPS       SUNNY     41  21  45 NE7       30.10R
ANTIGO         SUNNY     41  23  49 NE8       30.07R
TOMAHAWK       SUNNY     41  21  44 CALM      30.09S
MERRILL        SUNNY     43  23  45 N5        30.09R
$$

WIZ013-073-261500-
NORTHEAST WISCONSIN

CITY           SKY/WX    TMP DP  RH WIND       PRES   REMARKS
IRON MOUNTAIN  SUNNY     45  22  40 NW5       30.06R
MARINETTE      SUNNY     43  23  45 N7        30.06R
OCONTO         SUNNY     44  24  46 N3        30.06S
$$

WIZ017-030-035>037-045-261500-
CENTRAL WISCONSIN

CITY           SKY/WX    TMP DP  RH WIND       PRES   REMARKS
MEDFORD        SUNNY     43  23  45 NE7       30.09R
WAUSAU         SUNNY     44  23  43 NW6       30.07R
MOSINEE        SUNNY     43  21  42 N3        30.09R
MARSHFIELD     SUNNY     44  23  43 NE7       30.08R
WISC RAPIDS    SUNNY     45  19  35 E5        30.10R
STEVENS POINT  SUNNY     43  21  40 CALM      30.08R
WAUPACA        SUNNY     46  21  37 N7        30.08R
SHAWANO        SUNNY     46  22  37 NE5       30.08R
CLINTONVILLE   SUNNY     43  21  42 NE8       30.07R
$$

WIZ038-039-048-051-261500-
FOX VALLEY

CITY           SKY/WX    TMP DP  RH WIND       PRES   REMARKS
NWS GREEN BAY  SUNNY     45  24  43 N8        30.06R
APPLETON       SUNNY     43  21  42 N9        30.06R
OSHKOSH        SUNNY     44  24  45 N6        30.06R
FOND DU LAC    SUNNY     44  27  51 NE8       30.06R
$$

WIZ022-050-052-261500-
EAST CENTRAL WISCONSIN

CITY           SKY/WX    TMP DP  RH WIND       PRES   REMARKS
STURGEON BAY   SUNNY     39  27  60 NW6       30.07S
MANITOWOC      SUNNY     44  27  51 N9        30.05R
SHEBOYGAN      SUNNY     44  27  51 N8        30.04R
$$

LMZ563-521-522-541>543-261500-
LAKESHORE

STATION/POSITION TIME  TEMP    WIND        PRES    VSBY  WAVE
                       AIR SEA DIR/SP/G                  HT/PER
                 (UTC) (F)     (DEG/KT/KT) (MB)    (MI)  (FT/S)
SHEBOYGAN LKSHOR 1400   40     360/ 12/ 14 1018.2R
KEWAUNEE LKSHORE 1400   42      30/  6/ 11 1016.7R
NORTHPORT PIER   1400   38     320/  8/ 10 1017.9S
SISTER BAY LKSHO 1400   42     340/ 15/ 17   N/A
CHAMBERS ISLAND  1400   41     360/  5/  7 1018.3S
MENOMINEE LKSHOR 1400   40      10/  6/  7 1018.4S
$$


USA.gov is the U.S. government's official web portal to all federal, state and local government web resources and services.